Regional Weather Roundup
Issued by NWS

Home | Current Version | Previous Version | Text Only | Print | Product List | Glossary Off
Versions: 1 2 3 4 5 6 7 8 9 10 11 12 13 14 15 16 17 18 19 20 21 22 23 24 25 26 27 28 29 30 31 32 33 34 35 36 37 38 39 40 41 42 43 44 45 46 47 48 49 50

000
ASUS44 KMEG 212010
RWRTN
TENNESSEE HOURLY STATE WEATHER ROUNDUP
NATIONAL WEATHER SERVICE MEMPHIS TN
300 PM CDT THU SEP 21 2017

TNZ002-004-019-021-049-052-054-088>092-212100-
WEST TENNESSEE

CITY           SKY/WX    TMP DP  RH WIND       PRES   REMARKS
MEMPHIS INTL   MOSUNNY   90  69  50 S5        30.02F HX  94
NWS MEMPHIS      N/A     93 N/A N/A MISG        N/A
JACKSON        SUNNY     89  71  55 CALM      30.02F HX  95
DYERSBURG      SUNNY     91  71  51 W6        30.02F HX  97
SOMERVILLE     MOSUNNY   88  70  55 CALM      30.01F HX  92
COVINGTON      SUNNY     91  70  49 VRB5G12   30.01F HX  97
BOLIVAR        CLOUDY    88  72  58 CALM      30.01F HX  94
PARIS          MOSUNNY   88  70  55 CALM      30.01F HX  92
HUNTINGDON     MOSUNNY   91  70  49 VRB3      30.01F HX  97
LEXINGTON      SUNNY     90  70  51 CALM      30.01F HX  95
SAVANNAH       MOSUNNY   90  70  51 W6        30.00F HX  95
$$

TNZ008-025-027-028-033-062-065-066-212100-
NORTH MIDDLE TENNESSEE

CITY           SKY/WX    TMP DP  RH WIND       PRES   REMARKS
NASHVILLE      MOSUNNY   91  66  43 CALM      30.04F HX  93
PORTLAND       SUNNY     88  68  51 VRB5      30.04F HX  91
CLARKSVILLE    MOSUNNY   89  68  49 S6        30.03F HX  93
SMYRNA         CLOUDY    84  70  61 CALM      30.06S
COOKEVILLE     SUNNY     86  70  58 SW5       30.05F HX  90
GALLATIN       MOSUNNY   91  70  49 CALM      30.05F HX  97
CROSSVILLE     MOSUNNY   79  66  64 E8        30.11F
$$

TNZ061-075-076-078-094-096-097-212100-
SOUTH MIDDLE TENNESSEE

CITY           SKY/WX    TMP DP  RH WIND       PRES   REMARKS
FAYETTEVILLE   SUNNY     84  72  65 VRB6      30.05F
TULLAHOMA      PTSUNNY   84  66  54 VRB6      30.07F
WINCHESTER     SUNNY     86  70  58 CALM      30.06F HX  90
MCMINNVILLE    SUNNY     88  72  58 NE9       30.06F HX  94
COLUMBIA       SUNNY     82 N/A N/A CALM      30.03F
SHELBYVILLE    SUNNY     82  72  69 CALM      30.05F
$$

TNZ017-018-042-046-047-212100-
NORTHEAST TENNESSEE

CITY           SKY/WX    TMP DP  RH WIND       PRES   REMARKS
TRI CITIES     MOSUNNY   82  63  52 N8        30.08F
ELIZABETHTON   PTSUNNY   82  63  51 CALM      30.08F
$$

TNZ012-013-036-069-073-074-212100-
CENTRAL EAST TENNESSEE

CITY           SKY/WX    TMP DP  RH WIND       PRES   REMARKS
KNOXVILLE      MOSUNNY   87  63  44 NE8       30.04F
OAK RIDGE      SUNNY     87  64  46 VRB3      30.06F
DOWNTOWN KNOXV SUNNY     90  63  40 CALM      30.03F HX  90
GATLINBURG     SUNNY     88  57  35 VRB7      30.04F
MORRISTOWN     MOSUNNY   86  63  45 NE9G16    30.06F
JACKSBORO      SUNNY     79  70  73 VRB3      30.10F
$$

TNZ083-085-099-212100-
SOUTHEAST TENNESSEE

CITY           SKY/WX    TMP DP  RH WIND       PRES   REMARKS
CHATTANOOGA    MOSUNNY   88  66  48 NW10      30.04F HX  90
DAYTON         PTCLDY    88  73  62 N10       30.03F HX  96
$$

SKY/WX REPORTED AS FAIR MEANS FEW OR NO CLOUDS BELOW
12 THOUSAND FEET.





USA.gov is the U.S. government's official web portal to all federal, state and local government web resources and services.